Change the Weather History Date:

Thursday, January 16, 2014

  Actual Average Record
Temperature  
Mean Temperature 34 °F -  
Max Temperature 45 °F 38 °F 55 °F (2000)
Min Temperature 23 °F 22 °F -1 °F (1987)
Degree Days  
Heating Degree Days 31 35  
Month to date heating degree days 458 574  
Since 1 July heating degree days 3004 3141  
Cooling Degree Days 0 0  
Month to date cooling degree days 0 0  
Year to date cooling degree days 0 0  
Moisture  
Dew Point 20 °F    
Average Humidity 61    
Maximum Humidity 81    
Minimum Humidity 40    
Precipitation  
Precipitation 0.00 in 0.02 in 0.27 in (2015)
Month to date precipitation 0.28 0.63  
Year to date precipitation 0.28 0.63  
Sea Level Pressure  
Sea Level Pressure 30.48 in    
Wind  
Wind Speed 6 mph (SW)    
Max Wind Speed 18 mph    
Max Gust Speed 22 mph    
Visibility 10 miles    
Events      
T = Trace of Precipitation, MM = Missing Value Source: NWS Daily Summary

Daily Weather History Graph

Daily Weather History Graph

Search for Another Location

Airport or City:

Trip Planner

Search our weather history database for the weather conditions in past years. The results will help you decide how hot, cold, wet, or windy it might be!

Date:

Astronomy

Jan. 16, 2014 Rise Set
Actual Time 8:04 AM MST 5:31 PM MST
Civil Twilight 7:33 AM MST 6:02 PM MST
Nautical Twilight 6:58 AM MST 6:37 PM MST
Astronomical Twilight 6:24 AM MST 7:11 PM MST
Moon 6:29 PM MST (1/16) 7:58 AM MST (1/16)
Length of Visible Light 10h 29m
Length of Day
9h 27m
Full, 100% of the Moon is Illuminated
Jan 16
Full
Jan 23
Last Quarter
Jan 30
New
Feb 6
First Quarter
Feb 14
Full

Hourly Weather History & Observations

Time (MST) Temp. Windchill Dew Point Humidity Pressure Visibility Wind Dir Wind Speed Gust Speed Precip Events Conditions
12:53 AM 35.1 °F 27.4 °F 18.0 °F 50% 30.45 in 10.0 mi SW 10.4 mph - N/A   Clear
1:53 AM 33.1 °F 25.5 °F 18.0 °F 54% 30.48 in 10.0 mi SSW 9.2 mph - N/A   Clear
2:53 AM 28.0 °F 21.7 °F 17.1 °F 63% 30.49 in 10.0 mi SW 5.8 mph - N/A   Clear
3:53 AM 36.0 °F 26.7 °F 17.1 °F 46% 30.45 in 10.0 mi SSW 15.0 mph - N/A   Clear
4:53 AM 37.0 °F 27.7 °F 15.1 °F 41% 30.45 in 10.0 mi SSW 16.1 mph - N/A   Clear
5:53 AM 30.0 °F 23.2 °F 17.1 °F 59% 30.51 in 10.0 mi NNE 6.9 mph - N/A   Clear
6:53 AM 23.0 °F 14.7 °F 16.0 °F 74% 30.52 in 10.0 mi SSE 6.9 mph - N/A   Clear
7:53 AM 27.0 °F 19.5 °F 16.0 °F 63% 30.51 in 10.0 mi WSW 6.9 mph - N/A   Clear
8:53 AM 35.1 °F 27.9 °F 15.1 °F 44% 30.50 in 10.0 mi SSW 9.2 mph - N/A   Clear
9:53 AM 34.0 °F 31.0 °F 19.0 °F 54% 30.54 in 10.0 mi ENE 3.5 mph - N/A   Clear
10:53 AM 37.9 °F - 19.0 °F 47% 30.54 in 10.0 mi Calm Calm - N/A   Clear
11:53 AM 41.0 °F 37.1 °F 21.9 °F 47% 30.50 in 10.0 mi WNW 5.8 mph - N/A   Clear
12:53 PM 43.0 °F 39.5 °F 24.1 °F 47% 30.48 in 10.0 mi NW 5.8 mph - N/A   Clear
1:53 PM 43.0 °F 39.5 °F 26.1 °F 51% 30.45 in 10.0 mi NW 5.8 mph - N/A   Clear
2:53 PM 45.0 °F 42.6 °F 26.1 °F 48% 30.45 in 10.0 mi NW 4.6 mph - N/A   Clear
3:53 PM 44.1 °F - 26.1 °F 49% 30.43 in 10.0 mi Calm Calm - N/A   Clear
4:53 PM 43.0 °F - 26.1 °F 51% 30.43 in 10.0 mi Calm Calm - N/A   Clear
5:53 PM 37.0 °F 33.3 °F 25.0 °F 62% 30.46 in 10.0 mi WSW 4.6 mph - N/A   Clear
6:53 PM 26.1 °F - 19.9 °F 78% 30.52 in 10.0 mi Calm Calm - N/A   Clear
7:53 PM 30.9 °F 24.3 °F 23.0 °F 72% 30.49 in 10.0 mi SW 6.9 mph - N/A   Clear
8:53 PM 26.1 °F 20.5 °F 19.9 °F 78% 30.48 in 10.0 mi South 4.6 mph - N/A   Clear
9:53 PM 25.0 °F 19.3 °F 19.9 °F 81% 30.49 in 10.0 mi ESE 4.6 mph - N/A   Clear
10:53 PM 23.0 °F 15.8 °F 18.0 °F 81% 30.48 in 10.0 mi SE 5.8 mph - N/A   Clear
11:53 PM 27.0 °F 18.7 °F 19.9 °F 75% 30.44 in 10.0 mi South 8.1 mph - N/A   Clear